sat.trackr.live / text

‹ back to catalog

ARASE (ERG)

NORAD 41896 · 2016-080A

PAYLOAD ACTIVE UNKNOWN

§ Identity

Operator
Country
JPN
Launch date
2016-12-20
Launch site
KSCUT
Launch vehicle
Mass (kg)
RCS (m²)
1.34

External: N2YO · Heavens-Above · Gunter

§ Orbital elements

Epoch: 2026-09-15T08:06:07.814016Z

Period
558.60 min
Inclination
31.9436°
Eccentricity
0.6982815
Mean motion
2.57785867 rev/d
Perigee alt
400.8 km
Apogee alt
31,778.7 km
Semi-major
22,467.9 km
B*
3.3096e-4
RAAN
332.7793°
Arg perigee
101.8584°
Mean anomaly
337.7892°
Rev number
9,060

§ Raw data

ARASE (ERG)1 41896U 16080A   26258.33759044 -.00000184  00000+0  33096-3 0  99982 41896  31.9436 332.7793 6982815 101.8584 337.7892  2.57785867 90605

JSON: /api/v1/satellites/41896 · /tle

For live sub-satellite position, see the globe view (requires WebGL).

§ Visibility from observer

Set your observer location to see the next 7 days of passes ≥ 10°. The values pass through the URL so the page stays shareable.

No JS? Fill the form by hand. The geolocation button needs JavaScript.